Regional Weather Roundup
Issued by NWS Green Bay, WI

Home | Current Version | Previous Version | Graphics & Text | Print | Product List | Glossary Off
Versions: 1 2 3 4 5 6 7 8 9 10 11 12 13 14 15 16 17 18 19 20 21 22 23 24 25 26 27 28 29 30 31 32 33 34 35 36 37 38 39 40 41 42 43 44 45 46 47 48 49 50

000
ASUS43 KGRB 251400
RWRGRB

NORTH-CENTRAL AND NORTHEAST WISCONSIN REGIONAL WEATHER ROUNDUP
NATIONAL WEATHER SERVICE GREEN BAY WI
900 AM CDT WED APR 25 2018

WIZ005-009-010>012-018-019-251500-
NORTH CENTRAL WISCONSIN

CITY           SKY/WX    TMP DP  RH WIND       PRES   REMARKS
IRONWOOD       FAIR      35  25  66 VRB6      30.23S
MANITOWISH WTR NOT AVBL
ARBOR VITAE    NOT AVBL
EAGLE RIVER    FAIR      32  25  74 N6        30.18S
LAND O LAKES   FAIR      34  25  71 N10       30.19F
RHINELANDER    FAIR      35  28  75 NE6       30.19F
PHILLIPS       FAIR      35  27  75 NE7       30.21S
ANTIGO         NOT AVBL
TOMAHAWK       NOT AVBL
MERRILL        NOT AVBL
$$

WIZ013-073-251500-
NORTHEAST WISCONSIN

CITY           SKY/WX    TMP DP  RH WIND       PRES   REMARKS
IRON MOUNTAIN  FAIR      37  28  70 N8        30.16F
MARINETTE      FAIR      40  28  62 N14       30.18F
$$

WIZ017-030-035>037-045-251500-
CENTRAL WISCONSIN

CITY           SKY/WX    TMP DP  RH WIND       PRES   REMARKS
MEDFORD        NOT AVBL
WAUSAU         FAIR      37  28  70 NE8       30.18F
MOSINEE        SUNNY     37  30  75 NE8       30.20R
MARSHFIELD     FAIR      39  29  67 NE12      30.18F
WISC RAPIDS    FAIR      42  27  55 N10       30.20F
STEVENS POINT  NOT AVBL
WAUPACA        FAIR      42  30  62 N7        30.19F
SHAWANO        FAIR      41  31  65 NE9       30.19F
CLINTONVILLE   FAIR      40  28  61 N10G16    30.19F
WAUTOMA        FAIR      42  29  59 NE10      30.18F
$$

WIZ038-039-048-051-251500-
FOX VALLEY

CITY           SKY/WX    TMP DP  RH WIND       PRES   REMARKS
NWS GREEN BAY  FAIR      42  30  62 N14       30.17F
APPLETON       SUNNY     39  27  60 N17       30.16R
OSHKOSH        FAIR      42  31  64 N12       30.17S
FOND DU LAC    FAIR      41  32  70 N15       30.17S
$$

WIZ022-050-052-251500-
EAST CENTRAL WISCONSIN

CITY           SKY/WX    TMP DP  RH WIND       PRES   REMARKS
EPHRAIM        NOT AVBL
WASHINGTON ISL NOT AVBL
STURGEON BAY   FAIR      37  30  75 N16       30.17S
MANITOWOC      FAIR      41  31  67 N15G21    30.15F
SHEBOYGAN      FAIR      44  33  65 N14       30.14F
$$

LMZ563-521-522-541>543-251500-
LAKESHORE

STATION/POSITION TIME  TEMP    WIND        PRES    VSBY  WAVE
                       AIR SEA DIR/SP/G                  HT/PER
                 (UTC) (F)     (DEG/KT/KT) (MB)    (MI)  (FT/S)
SHEBOYGAN LKSHOR 1300   39     350/ 17/ 19 1021.4R
KEWAUNEE LKSHORE 1330   40     330/ 11/ 20 1020.3F
NORTHPORT PIER   1340   35                 1021.0S
MENOMINEE LKSHOR 1324   35     350/ 11/ 13 1021.5S
$$




USA.gov is the U.S. government's official web portal to all federal, state and local government web resources and services.